Weather History for PARC - May, 2014

Change the Weather History Date:

Monday, May 12, 2014

  Actual Average Record
Temperature  
Mean Temperature 38 °F -  
Max Temperature 50 °F 42 °F 53 °F (2005)
Min Temperature 26 °F 22 °F 6 °F (2001)
Degree Days  
Heating Degree Days 27    
Moisture  
Dew Point 27 °F    
Average Humidity 62    
Maximum Humidity 86    
Minimum Humidity 43    
Precipitation  
Precipitation 0.00 in - - ()
Sea Level Pressure  
Sea Level Pressure 30.24 in    
Wind  
Wind Speed 2 mph (NE)    
Max Wind Speed 6 mph    
Max Gust Speed -    
Visibility 10 miles    
Events      
Averages and records for this station are not official NWS values.
T = Trace of Precipitation, MM = Missing Value Source: NWS Daily Summary

Daily Weather History Graph

Daily Weather History Graph

Search for Another Location

Airport or City:

Trip Planner

Search our weather history database for the weather conditions in past years. The results will help you decide how hot, cold, wet, or windy it might be!

Date:

Astronomy

May. 12, 2014 Rise Set
Actual Time 3:42 AM AKDT 11:39 PM AKDT
Civil Twilight Sun does not set Sun does not set
Nautical Twilight Sun does not set Sun does not set
Astronomical Twilight Sun does not set Sun does not set
Moon 8:26 PM AKDT (5/12) 4:06 AM AKDT (5/12)
Length of Visible Light 24h 00m
Length of Day
19h 57m
Waxing Gibbous, 95% of the Moon is Illuminated
May 12
Waxing Gibbous
May 14
Full
May 21
Last Quarter
May 28
New
Jun 5
First Quarter

Hourly Weather History & Observations

Time (AKDT) Temp. Windchill Dew Point Humidity Pressure Visibility Wind Dir Wind Speed Gust Speed Precip Events Conditions
12:16 AM 37.4 °F - 24.8 °F 60% 30.29 in 10.0 mi Calm Calm - N/A   Clear
12:36 AM 35.6 °F 32.8 °F 26.6 °F 70% 30.30 in 10.0 mi East 3.5 mph - N/A   Clear
12:56 AM 33.8 °F - 24.8 °F 70% 30.30 in 10.0 mi Calm Calm - N/A   Clear
1:16 AM 33.8 °F 29.6 °F 26.6 °F 75% 30.29 in 10.0 mi NE 4.6 mph - N/A   Clear
1:36 AM 32.0 °F 26.4 °F 26.6 °F 80% 30.29 in 10.0 mi NNE 5.8 mph - N/A   Clear
1:56 AM 32.0 °F 27.5 °F 24.8 °F 75% 30.29 in 10.0 mi NNE 4.6 mph - N/A   Clear
2:16 AM 30.2 °F 26.7 °F 24.8 °F 80% 30.29 in 10.0 mi ENE 3.5 mph - N/A   Clear
2:36 AM 30.2 °F 26.7 °F 24.8 °F 80% 30.29 in 10.0 mi ENE 3.5 mph - N/A   Clear
2:56 AM 30.2 °F - 24.8 °F 80% 30.29 in 10.0 mi Calm Calm - N/A   Clear
3:16 AM 30.2 °F - 24.8 °F 80% 30.29 in 10.0 mi Calm Calm - N/A   Clear
3:36 AM 28.4 °F - 24.8 °F 86% 30.28 in 10.0 mi Calm Calm - N/A   Clear
3:56 AM 28.4 °F - 24.8 °F 86% 30.28 in 10.0 mi Calm Calm - N/A   Clear
4:16 AM 30.2 °F 26.7 °F 24.8 °F 80% 30.28 in 10.0 mi East 3.5 mph - N/A   Clear
4:36 AM 28.4 °F - 24.8 °F 86% 30.28 in 10.0 mi Calm Calm - N/A   Clear
4:56 AM 28.4 °F 24.6 °F 24.8 °F 86% 30.28 in 10.0 mi East 3.5 mph - N/A   Clear
5:16 AM 28.4 °F - 24.8 °F 86% 30.28 in 10.0 mi Calm Calm - N/A   Clear
5:36 AM 26.6 °F - 23.0 °F 86% 30.28 in 10.0 mi Calm Calm - N/A   Clear
6:16 AM 30.2 °F - 26.6 °F 86% 30.28 in 10.0 mi Calm Calm - N/A   Clear
6:36 AM 28.4 °F - 24.8 °F 86% 30.29 in 10.0 mi Calm Calm - N/A   Clear
6:56 AM 30.2 °F - 24.8 °F 80% 30.29 in 10.0 mi Calm Calm - N/A   Clear
7:16 AM 30.2 °F 26.7 °F 24.8 °F 80% 30.28 in 10.0 mi East 3.5 mph - N/A   Clear
7:36 AM 32.0 °F 28.7 °F 24.8 °F 75% 30.28 in 10.0 mi ESE 3.5 mph - N/A   Clear
7:56 AM 33.8 °F - 26.6 °F 75% 30.28 in 10.0 mi Calm Calm - N/A   Clear
8:16 AM 33.8 °F 30.8 °F 26.6 °F 75% 30.27 in 10.0 mi ENE 3.5 mph - N/A   Clear
8:36 AM 35.6 °F 32.8 °F 24.8 °F 65% 30.27 in 10.0 mi ENE 3.5 mph - N/A   Clear
8:56 AM 35.6 °F 32.8 °F 26.6 °F 70% 30.27 in 10.0 mi NE 3.5 mph - N/A   Clear
9:16 AM 35.6 °F - 26.6 °F 70% 30.27 in 10.0 mi Calm Calm - N/A   Clear
9:36 AM 37.4 °F 34.9 °F 26.6 °F 65% 30.27 in 10.0 mi NE 3.5 mph - N/A   Clear
9:56 AM 39.2 °F - 26.6 °F 61% 30.27 in 10.0 mi Calm Calm - N/A   Clear
10:16 AM 39.2 °F 37.0 °F 26.6 °F 61% 30.27 in 10.0 mi East 3.5 mph - N/A   Clear
10:36 AM 39.2 °F 35.9 °F 26.6 °F 61% 30.27 in 10.0 mi ENE 4.6 mph - N/A   Clear
10:56 AM 41.0 °F 38.0 °F 26.6 °F 57% 30.27 in 10.0 mi ENE 4.6 mph - N/A   Clear
11:36 AM 42.8 °F - 26.6 °F 53% 30.27 in 10.0 mi Calm Calm - N/A   Clear
11:56 AM 42.8 °F - 28.4 °F 57% 30.26 in 10.0 mi Calm Calm - N/A   Clear
12:16 PM 42.8 °F - 26.6 °F 53% 30.26 in 10.0 mi Calm Calm - N/A   Clear
12:36 PM 42.8 °F 41.1 °F 26.6 °F 53% 30.26 in 10.0 mi SSE 3.5 mph - N/A   Clear
12:56 PM 44.6 °F - 26.6 °F 49% 30.26 in 10.0 mi Calm Calm - N/A   Clear
1:16 PM 44.6 °F - 26.6 °F 49% 30.26 in 10.0 mi Calm Calm - N/A   Clear
1:36 PM 44.6 °F - 26.6 °F 49% 30.25 in 10.0 mi Calm Calm - N/A   Clear
1:56 PM 46.4 °F - 26.6 °F 46% 30.25 in 10.0 mi Calm Calm - N/A   Clear
2:16 PM 46.4 °F - 26.6 °F 46% 30.25 in 10.0 mi Calm Calm - N/A   Clear
2:36 PM 46.4 °F - 26.6 °F 46% 30.25 in 10.0 mi Calm Calm - N/A   Clear
2:56 PM 46.4 °F - 28.4 °F 50% 30.25 in 10.0 mi Calm Calm - N/A   Clear
3:16 PM 48.2 °F - 28.4 °F 46% 30.24 in 10.0 mi Calm Calm - N/A   Clear
3:36 PM 46.4 °F - 28.4 °F 50% 30.23 in 10.0 mi Calm Calm - N/A   Clear
3:56 PM 48.2 °F - 28.4 °F 46% 30.23 in 10.0 mi Calm Calm - N/A   Clear
4:16 PM 48.2 °F - 26.6 °F 43% 30.22 in 10.0 mi Calm Calm - N/A   Clear
4:36 PM 48.2 °F - 28.4 °F 46% 30.22 in 10.0 mi East 3.5 mph - N/A   Clear
4:56 PM 48.2 °F - 28.4 °F 46% 30.21 in 10.0 mi Calm Calm - N/A   Clear
5:16 PM 50.0 °F - 28.4 °F 43% 30.21 in 10.0 mi Calm Calm - N/A   Clear
5:36 PM 48.2 °F - 28.4 °F 46% 30.21 in 10.0 mi Calm Calm - N/A   Clear
5:56 PM 50.0 °F - 28.4 °F 43% 30.20 in 10.0 mi NNE 3.5 mph - N/A   Clear
6:16 PM 48.2 °F - 28.4 °F 46% 30.20 in 10.0 mi NE 3.5 mph - N/A   Clear
6:36 PM 48.2 °F - 28.4 °F 46% 30.19 in 10.0 mi North 3.5 mph - N/A   Clear
6:56 PM 48.2 °F - 28.4 °F 46% 30.18 in 10.0 mi Calm Calm - N/A   Clear
7:16 PM 48.2 °F - 28.4 °F 46% 30.18 in 10.0 mi North 4.6 mph - N/A   Clear
7:36 PM 46.4 °F 43.5 °F 28.4 °F 50% 30.17 in 10.0 mi North 5.8 mph - N/A   Clear
7:56 PM 48.2 °F - 28.4 °F 46% 30.17 in 10.0 mi North 5.8 mph - N/A   Clear
8:16 PM 48.2 °F - 28.4 °F 46% 30.16 in 10.0 mi NNE 3.5 mph - N/A   Clear
8:36 PM 46.4 °F 45.2 °F 28.4 °F 50% 30.16 in 10.0 mi NNE 3.5 mph - N/A   Clear
8:56 PM 46.4 °F - 28.4 °F 50% 30.16 in 10.0 mi Calm Calm - N/A   Clear
9:16 PM 46.4 °F 44.3 °F 30.2 °F 53% 30.15 in 10.0 mi North 4.6 mph - N/A   Clear
9:36 PM 44.6 °F 41.4 °F 28.4 °F 53% 30.14 in 10.0 mi North 5.8 mph - N/A   Clear
10:16 PM 42.8 °F - 28.4 °F 57% 30.14 in 10.0 mi Calm Calm - N/A   Clear
10:36 PM 42.8 °F 41.1 °F 28.4 °F 57% 30.13 in 10.0 mi NNE 3.5 mph - N/A   Clear
10:56 PM 42.8 °F - 28.4 °F 57% 30.13 in 10.0 mi Calm Calm - N/A   Clear
11:16 PM 41.0 °F 39.0 °F 28.4 °F 61% 30.12 in 10.0 mi NE 3.5 mph - N/A   Clear
11:36 PM 39.2 °F - 28.4 °F 65% 30.12 in 10.0 mi Calm Calm - N/A   Clear
11:56 PM 39.2 °F - 30.2 °F 70% 30.12 in 10.0 mi Calm Calm - N/A   Clear